Terug naar catalogus

METEOR 2-12 DEB

ActiefPO
NORAD 45518·DEBRIS·🇷🇺 Russia

Gelanceerd Feb 6, 1985 vanaf Plesetsk Cosmodrome

Loading…

Volgende Passages (komende 24 uur)

TLE

VersSource: Space-Track

Epoch: Sep 14, 2026, 03:07 UTC

1 45518U 85013D   26257.13043346  .00001779  00000-0  10789-2 0  9997
2 45518  82.5271 195.5895 0022133 163.9035 196.2845 14.05753172133401

Volg METEOR 2-12 DEB in realtime met AllMySat

Download on the App Store